Location: Pradons
(44.4746°N, 4.3578°E)
Time: 00:45:11
(UTC+00:00)

IGS 5A - Pass Details

Date: 09 April 2020
Orbit: 585 x 587 km, 97.6° (Epoch: 29 May)

Event Time Altitude Azimuth Distance (km) Brightness Sun altitude
Exits shadow 20:20:46 34° 63° (ENE) 979 4.3 -20.4°
Drops below altitude 10° 20:24:19 10° 5° (N) 1,919 6.5 -21.0°
Sets 20:26:37 0° 356° (N) 2,824 7.5 -21.3°
